Location: Recife
(8.0585°S, 34.8848°W)
Time: 10:51:00
(UTC-03:00)

Explorer 11/Cluster Stage 4 - Pass Details

Date: 16 April 2026
Orbit: 463 x 1174 km, 28.8° (Epoch: 20 May)

Event Time Altitude Azimuth Distance (km) Brightness Sun altitude
Rises 06:29:31 0° 256° (WSW) 2,911 8.9 15.6°
Reaches altitude 10° 06:31:49 10° 265° (W) 2,104 8.2 16.1°
Maximum altitude 06:36:24 37° 332° (NNW) 1,184 7.6 17.2°
Drops below altitude 10° 06:41:57 10° 38° (NE) 2,554 10.2 18.6°
Sets 06:45:01 0° 45° (NE) 3,622 11.0 19.3°
